DW0465 Weather Reports


time (UTC)temp
C
wind
direction
speed
KPH
gust
KPH
rain 1hr
cm
rain 24hr
cm
rain mn
cm
humidity
%
barometer
mb
20260504190028 10 28 0.0 9.7 0.00 0.00 0.00 49 1006.9
20260504184536 8 340 0.0 3.2 0.00 0.00 0.00 49 1007.1
20260504183026 8 19 0.0 3.2 0.00 0.00 0.00 49 1007.1
20260504181530 8 360 1.6 6.4 0.00 0.00 0.00 49 1007.1
20260504180025 8 11 0.0 14.5 0.00 0.00 0.00 49 1007.1
20260504174524 8 342 0.0 6.4 0.00 0.00 0.00 49 1007.1
20260504173022 9 38 1.6 14.5 0.00 0.00 0.00 48 1007.2
20260504171522 8 20 0.0 9.7 0.00 0.00 0.00 51 1006.8
20260504081509 7 213 0.0 4.8 0.00 0.00 0.00 52 1003.7
20260504070115 7 209 0.0 1.6 0.00 0.00 0.00 50 1004.0
20260504044555 8 201 0.0 0.0 0.00 0.00 0.00 48 1004.4
20260504043058 9 224 0.0 1.6 0.00 0.00 0.00 49 1004.4
20260504041549 10 212 0.0 0.0 0.00 0.00 0.00 49 1004.4
20260504040111 10 178 0.0 0.0 0.00 0.00 0.00 45 1004.4
20260504034549 10 167 0.0 0.0 0.00 0.00 0.00 45 1004.3
20260504033050 11 162 0.0 0.0 0.00 0.00 0.00 43 1004.3
20260504031556 11 159 0.0 0.0 0.00 0.00 0.00 40 1004.1
20260504030047 12 156 0.0 0.0 0.00 0.00 0.00 36 1003.8
20260504024548 12 159 0.0 0.0 0.00 0.00 0.00 37 1003.7
20260504023046 13 128 0.0 0.0 0.00 0.00 0.00 34 1003.5
20260504021546 15 94 0.0 0.0 0.00 0.00 0.00 40 1003.5
20260504020055 16 94 0.0 0.0 0.00 0.00 0.00 33 1003.4
20260504014545 17 94 0.0 0.0 0.00 0.00 0.00 25 1003.4
20260504013045 18 94 0.0 0.0 0.00 0.00 0.00 24 1003.4
20260504011542 18 94 0.0 0.0 0.00 0.00 0.00 25 1003.6
20260504010039 17 94 0.0 0.0 0.00 0.00 0.00 28 1003.7
20260504004539 18 94 0.0 0.0 0.00 0.00 0.00 27 1003.7
20260504003036 18 94 0.0 0.0 0.00 0.00 0.00 26 1003.9
20260504001543 18 144 0.0 0.0 0.00 0.00 0.00 24 1004.0
20260504000033 18 146 0.0 0.0 0.00 0.00 0.00 25 1004.3
20260503234549 18 146 0.0 0.0 0.00 0.00 0.00 24 1004.3
20260503233038 19 34 0.0 0.0 0.00 0.00 0.00 23 1004.4
20260503231534 19 5 0.0 1.6 0.00 0.00 0.00 23 1004.5
20260503230029 18 355 0.0 0.0 0.00 0.00 0.00 24 1004.7
20260503224528 18 49 0.0 1.6 0.00 0.00 0.00 25 1004.8
20260503223026 18 92 0.0 1.6 0.00 0.00 0.00 25 1004.8
20260503221529 18 46 0.0 1.6 0.00 0.00 0.00 26 1005.0
20260503220024 18 10 0.0 3.2 0.00 0.00 0.00 26 1005.2
20260503214521 18 37 0.0 1.6 0.00 0.00 0.00 26 1005.6
20260503213023 18 330 0.0 1.6 0.00 0.00 0.00 27 1005.6
20260503211518 17 289 0.0 3.2 0.00 0.00 0.00 25 1005.9
20260503210018 17 360 0.0 0.0 0.00 0.00 0.00 27 1006.0
20260503204523 17 42 0.0 3.2 0.00 0.00 0.00 30 1006.0
20260503203018 17 5 0.0 0.0 0.00 0.00 0.00 26 1005.9
20260503201516 18 342 0.0 0.0 0.00 0.00 0.00 25 1006.0
20260503200015 18 336 0.0 1.6 0.00 0.00 0.00 26 1006.2
20260503194515 18 48 0.0 1.6 0.00 0.00 0.00 25 1006.4
20260503193012 18 135 0.0 3.2 0.00 0.00 0.00 23 1006.4
20260503191509 19 148 0.0 1.6 0.00 0.00 0.00 25 1006.6